STARLINK-35967, 66634

Orbit data source: Space-Track

STARLINK-35967, 66634 is a payload satellite owned by SpaceX/Seattle (US) in LEO that was launched on Sun, 23 Nov 2025 UTC via an FALCON 9 launch vehicle from the Air Force Western Test Range (AFWTR). Payload-class satellites include a variety of spacecraft equipped with specific instruments for various scientific and technological missions. These include communications satellites like Starlink; space stations such as the ISS; scientific satellites like the Hubble; Earth observation satellites from companies like Planet Labs, Umbra, and HawkEye 360; GPS; miniature CubeSats for education and research; and military/defense satellites.

Loading next visibility...
Identifier
66634, 2025-271T
Orbit
LEO
Country
Flag of USUS
Related business
Manufacturer
SpaceX/Seattle
Mission
Operational Commercial Communications
Bus & Motor
STARLINK V2MO, Unknown motor
Mass
575 kg wet, ~530 kg dry
Launch date (UTC)
2025-11-23 (1 month ago)
Launch vehicle
FALCON 9
Launch site
Air Force Western Test Range (AFWTR)
Object type
Payload
Rocket body
Debris
Shape & HBR
Box + 2 Pan, 17.7 m
Radar Cross Section
36.964 m²

Expand to show TLE details & history
Last TLE update: 13 hours ago

TLE from 13 hours ago
0 STARLINK-35967
1 66634U 25271T   25355.13938963  .00028429  00000-0  71777-3 0  9991
2 66634  53.1602 147.3923 0000201  11.2586 348.8423 15.39632042  5461
Epoch: 2025-12-21T03:20Z
TLE epoch observation values (Epoch: 2025-12-21T03:20:43.264Z)
Latitude
-0.00003°
Longitude
7.25589°
Altitude
447.965 km
Speed
7.645 km/s
True Right ascension
09h 49m 34s
True Declination
0° 00' 00"
Sunlit
Object was in full shadow at epoch
Visualization orbit readout
Latitude
Unknown
Longitude
Unknown
Altitude
Unknown
Speed
Unknown
Apparent Right ascension
Unknown
Apparent Declination
Unknown
Sunlit
N/A
Visualization observer readout
Local Sidereal Time
15:46:40
Azimuth
Unknown
Elevation
Unknown
Doppler factor
Unknown
Orbital elements
Apogee altitude
447.591 km
Perigee altitude
447.317 km
Semi-major axis
6,825.591 km
Eccentricity
0.00002
Inclination
53.1602°
RAAN
147.3923°
Arg. of periapsis
11.2586°
True anomaly
348.84185°
Mean anomaly
348.8423°
Eccentric anomaly
348.84208°
Mean motion
3.84887 °/min
Orbital period
93.53 mins
BSTAR
0.00071777
Loading maneuver chart data...
Computing Atmospheric mass density...
Loading historical data...
Loading historical data...
Loading historical data...
Loading historical data...
Loading historical data...
Loading historical data...
Loading historical data...

Documentation

Showing up to 5 results
|